Regional Weather Roundup
Issued by NWS Sterling, VA

Home | Current Version | Previous Version | Text Only | Print | Product List | Glossary Off
Versions: 1 2 3 4 5 6 7 8 9 10 11 12 13 14 15 16 17 18 19 20 21 22 23 24 25 26 27 28 29 30 31 32 33 34 35 36 37 38 39 40 41 42 43 44 45 46 47 48 49 50

786
ASUS41 KLWX 311810
RWRLWX

REGIONAL WEATHER ROUNDUP
NATIONAL WEATHER SERVICE BALTIMORE MD/WASHINGTON DC
200 PM EDT WED AUG 31 2016

Note: "FAIR" indicates few or no clouds below 12,000 feet
with no significant weather and/or obstructions to visibility.
 TC=TEMPERATURE CELSIUS

 * =Non NWS site. Station does not report precipitation (e.g. rain,
    snow, etc.), thunder, or fog.

DCZ001-MDZ009-015-VAZ040>042-051-053>054-311900-
WASHINGTON METRO

CITY           SKY/WX    TMP DP  RH WIND       PRES   REMARKS
WASHINGTON NAT MOSUNNY   87  70  56 S10       29.94F HX  92
DULLES         PTSUNNY   87  66  49 S10G16    29.93F
ANDREWS AFB    MOSUNNY   88  68  52 SW7       29.93F HX  91
FT BELVOIR     SUNNY     88  68  52 SE10      29.93F HX  91
QUANTICO       MOSUNNY   87  69  54 S14       29.94F HX  91
COLLEGE PARK*  MOSUNNY   88  68  51 S6        29.93F HX  91
LEESBURG*      MOSUNNY   91  70  49 S8        29.94F HX  97
MANASSAS*      SUNNY     88  70  55 S9        29.94F HX  92
GAITHERSBURG*  MOSUNNY   88  68  51 SW3       29.98F HX  91

$$

MDZ006>007-011-014-311900-
BALTIMORE METRO

CITY           SKY/WX    TMP DP  RH WIND       PRES   REMARKS
BWI AIRPORT    MOSUNNY   89  67  47 SW6       29.93F HX  92
MD SCIENCE CTR   N/A     88  68  51 MISG      29.92F HX  91
MARTIN STATE   MOSUNNY   88  73  62 SE10      29.95F HX  96
ANNAPOLIS      MOSUNNY   85  72  65 SE14      29.93F HX  91
FORT MEADE*      N/A     86  68  54 S5        29.95F

$$

MDZ012-015-019>023-311900-
MARYLAND EASTERN SHORE

CITY           SKY/WX    TMP DP  RH WIND       PRES   REMARKS
OCEAN CITY     SUNNY     83  71  67 SE9       29.96F
SALISBURY      MOSUNNY   89  65  44 VRB3      29.94F HX  91
BAY BRIDGE AP* MOSUNNY   90  68  48 MISG      29.94F HX  93
CAMBRIDGE*     MOSUNNY   84  66  54 CALM      29.94F
EASTON*        MOSUNNY   90  72  55 SW7       29.98F HX  96

$$

MDZ017>025-311900-
SOUTHERN MARYLAND

CITY           SKY/WX    TMP DP  RH WIND       PRES   REMARKS
PATUXENT RIVER MOSUNNY   86  71  60 SE10      29.94F HX  91
ST INIGOES     SUNNY     88  66  48 VRB3      29.93F HX  90
LEONARDTOWN*   MOSUNNY   86  64  48 S6        29.96F

$$

MDZ003>005-311900-
NORTH CENTRAL MARYLAND

CITY           SKY/WX    TMP DP  RH WIND       PRES   REMARKS
FREDERICK*     NOT AVBL
HAGERSTOWN APT MOSUNNY   87  66  49 SW8       29.94F

$$

MDZ501>502-311900-
WESTERN MARYLAND

CITY           SKY/WX    TMP DP  RH WIND       PRES   REMARKS
OAKLAND*         N/A     73  52  46 NW3       30.08F
CUMBERLAND*    CLOUDY    90  59  35 N7        29.98F

$$

VAZ025>031-311900-
SHENANDOAH VALLEY

CITY           SKY/WX    TMP DP  RH WIND       PRES   REMARKS
WINCHESTER*    MOSUNNY   88  64  45 SW5       29.94F
FRONT ROYAL*   FAIR      90  57  33 S6        29.93F
LURAY*         FAIR      88  61  40 W3        29.95F
NEW MARKET*    FAIR     N/A N/A N/A CALM      29.93F
STAUNTON*      SUNNY     87  67  52 CALM      29.98F
WAYNESBORO*    FAIR      87  68  53 W3        29.99F HX  90

$$

WVZ021-048>050-054>055-311900-
EASTERN WEST VIRGINIA PANHANDLE

CITY           SKY/WX    TMP DP  RH WIND       PRES   REMARKS
MARTINSBURG    MOSUNNY   87  66  49 VRB5      29.93F
PETERSBURG*    SUNNY     92  58  31 CALM      29.94F HX  90

$$

VAZ036>039-050-311900-
CENTRAL FOOTHILLS

CITY           SKY/WX    TMP DP  RH WIND       PRES   REMARKS
CHARLOTTESVILL PTSUNNY   91  72  53 S9        29.94F HX  98
CULPEPER*      PTSUNNY   88  73  60 SW7       29.94F HX  95
ORANGE*          N/A     88  70  55 S3        29.96F HX  92
GORDONSVILLE*  NOT AVBL
WARRENTON*     FAIR      88  65  46 S6        29.93F HX  90

$$

VAZ055>057-311900-
NORTH AND CENTRAL PIEDMONT

CITY           SKY/WX    TMP DP  RH WIND       PRES   REMARKS
FREDERICKSBRG* MOSUNNY   88  68  50 S7        29.93F HX  91
STAFFORD*      PTSUNNY   89  65  45 S8        29.98F HX  90

$$

NCZ024-NYZ072-PAZ021-071-VAZ022-071-311900-
OTHER REGIONAL OBSERVATIONS

CITY           SKY/WX    TMP DP  RH WIND       PRES   REMARKS
NEW YORK CITY  CLOUDY    87  62  43 CALM      29.95F
PHILADELPHIA   MOSUNNY   88  62  41 SW9       29.93F
PITTSBURGH     CLOUDY    85  55  35 CALM      29.98F
ROANOKE        MOSUNNY   90  66  45 SW9       29.99F HX  92
RICHMOND       PTSUNNY   90  65  43 SW5       29.94F HX  92
RALEIGH        PTSUNNY   92  66  42 SE5       29.96F HX  94

$$

ANZ530>537-311900-
MARINE OBSERVATIONS

STATION/POSITION TIME  TEMP    WIND        PRES
                       AIR SEA DIR/SP/G
                 (UTC) (F)     (DEG/KT/KT) (MB)
THOMAS PT LIGHT  1800   82 84  150/  9/ 10 1015.1F
BALT KEY BRIDGE  1736   83     110/ 11/ 13 1013.6F
COVE POINT       1736   81     170/ 11/ 12 1014.7F
LEWISETTA        1706   82 84  110/  8/  9 1014.2
SOLOMONS ISLAND  1748          120/  7/ 10   N/A
PINEY POINT      1700          160/  5/  5   N/A

$$





USA.gov is the U.S. government's official web portal to all federal, state and local government web resources and services.